Regional Weather Roundup
Issued by NWS

Home | Current Version | Previous Version | Graphics & Text | Print | Product List | Glossary On
Versions: 1 2 3 4 5 6 7 8 9 10 11 12 13 14 15 16 17 18 19 20 21 22 23 24 25 26 27 28 29 30 31 32 33 34 35 36 37 38 39 40 41 42 43 44 45 46 47 48 49 50
000
ASUS43 KLSX 280407
RWRMO

WEATHER SUMMARY FOR MISSOURI
NATIONAL WEATHER SERVICE SPRINGFIELD MO
1100 PM CDT MON JUL 27 2015

NOTE: "FAIR" INDICATES FEW OR NO CLOUDS BELOW 12,000 FEET WITH NO
       SIGNIFICANT WEATHER AND/OR OBSTRUCTIONS TO VISIBILITY.
       CURRENT SKY AND/OR WEATHER CONDITIONS ARE NOT AVAILABLE FOR
       CHILLICOTHE AND FARMINGTON.

MOZ001>031-035>038-043-044-053-054-280500-
...NORTHERN AND WESTERN MISSOURI...

CITY           SKY/WX    TMP DP  RH WIND       PRES   REMARKS
KANSAS CTY INT PTCLDY    81  73  76 SE6       29.90R
KANSAS C DTWN  CLEAR     88  73  61 SE9       29.89R HX  95
LEE`S SUMMIT   CLEAR     85  73  67 SE6       29.92R HX  91
ST JOSEPH      CLEAR     78  72  81 SE12      29.89R
CHILLICOTHE      N/A     77  70  79 SE7       29.93F
KIRKSVILLE     CLEAR     74  71  91 SE8       29.95F

$$
MOZ066>068-077>081-088>096-101>105-280500-
...SOUTHWEST MISSOURI...

CITY           SKY/WX    TMP DP  RH WIND       PRES   REMARKS
SPRINGFIELD    CLEAR     83  75  77 SE8       29.97R HX  90
JOPLIN         CLEAR     83  76  79 SE5       29.94R HX  91

$$
MOZ032>034-039>042-045>050-055>058-069>072-280500-
...CENTRAL MISSOURI...

CITY           SKY/WX    TMP DP  RH WIND       PRES   REMARKS
COLUMBIA       LGT RAIN  75  71  87 E12       29.96S
JEFFERSON CITY CLEAR     78  71  79 E5        29.94S
ROLLA          PTCLDY    79  74  84 E13       29.96S THUNDER
SEDALIA        CLEAR     80  72  76 E9        29.95R
WHITEMAN AFB   MOCLDY    83  76  81 E8        29.91S HX  91
WARRENSBURG    PTCLDY    81  73  78 SE3       29.91S
OSAGE BEACH    PTCLDY    81  77  89 S5        29.94F

$$
MOZ051-052-059>065-280500-
...EAST CENTRAL MISSOURI...

CITY           SKY/WX    TMP DP  RH WIND       PRES   REMARKS
ST LOUIS INTL  CLOUDY    78  69  73 SE9       29.96F
SPIRIT OF STL  MOCLDY    77  71  82 S5        29.95F
ST CHARLES     CLOUDY    74  73  97 S5        29.94F

$$
MOZ072>076-082>087-097>100-106>115-280500-
...SOUTH CENTRAL AND SOUTHEAST MISSOURI...

CITY           SKY/WX    TMP DP  RH WIND       PRES   REMARKS
CAPE GIRARDEAU CLOUDY    78  75  90 N8        29.96S
FARMINGTON     CLOUDY    79  73  83 SE3       30.02S THUNDER
POPLAR BLUFF   MOCLDY    81  79  94 CALM      29.94S HX  90
WEST PLAINS    MOCLDY    76  72  87 CALM      30.01R

$$



USA.gov is the U.S. government's official web portal to all federal, state and local government web resources and services.